Regional Weather Roundup
Issued by NWS

Home | Current Version | Previous Version | Text Only | Print | Product List | Glossary Off
Versions: 1 2 3 4 5 6 7 8 9 10 11 12 13 14 15 16 17 18 19 20 21 22 23 24 25 26 27 28 29 30 31 32 33 34 35 36 37 38 39 40 41 42 43 44 45 46 47 48 49 50

000
ASUS43 KOAX 061110
RWRNE

WEATHER ROUNDUP FOR NEBRASKA
NATIONAL WEATHER SERVICE OMAHA NE
500 AM CST FRI MAR 06 2015

NOTES: SATELLITE DATA IS BEING USED TO AUGMENT CLOUD COVER ABOVE
       12000 FEET.
       "FAIR" INDICATES FEW OR NO CLOUDS BELOW 12,000 FEET WITH NO
       SIGNIFICANT WEATHER AND/OR OBSTRUCTIONS TO VISIBILITY.

  * THESE STATIONS DO NOT REPORT WEATHER SUCH AS RAIN...SNOW OR FOG.

NEZ001>004-019>022-054>056-061200-
NEBRASKA PANHANDLE

CITY           SKY/WX    TMP DP  RH WIND       PRES   REMARKS
SCOTTSBLUFF    MOCLDY    30  22  72 NW6       30.20F WCI  24
ALLIANCE       CLOUDY    22  17  81 CALM      30.18S
CHADRON        CLOUDY    33  23  66 CALM      30.18S
KIMBALL        PTCLDY    30  20  66 W9        30.19S WCI  21
SIDNEY         PTCLDY    28  17  63 W10       30.21S WCI  19
$$

NEZ057>060-069>072-079>082-061200-
SOUTHWEST NEBRASKA

CITY           SKY/WX    TMP DP  RH WIND       PRES   REMARKS
NORTH PLATTE   CLEAR     14  10  84 NW6       30.21S WCI   5
IMPERIAL         N/A     28  17  63 W12       30.22S WCI  18
LEXINGTON      CLEAR     21  14  76 W9        30.21S WCI  10
MCCOOK         CLEAR     24  17  74 W9        30.23S WCI  14
OGALLALA       PTCLDY    25  20  80 W10       30.21F WCI  15
$$

NEZ005>010-023>029-035>040-094-061200-
NORTH CENTRAL NEBRASKA

CITY           SKY/WX    TMP DP  RH WIND       PRES   REMARKS
VALENTINE      CLEAR     24  19  81 SW8       30.13F WCI  15
AINSWORTH      CLEAR     27  20  75 W9        30.13S WCI  17
BROKEN BOW     CLEAR     31  16  54 W10       30.16F WCI  22
O`NEILL        CLEAR     25  19  77 W7        30.14R WCI  18
ORD            CLEAR     14   6  70 NW3       30.16S
THEDFORD       CLEAR     22  16  79 W3        30.16F
$$

NEZ041-046>049-061>064-073>077-083>087-061200-
SOUTH CENTRAL NEBRASKA

CITY           SKY/WX    TMP DP  RH WIND       PRES   REMARKS
GRAND ISLAND   CLEAR     23  12  62 SW5       30.19S WCI  17
AURORA         CLEAR     21  11  66 SW8       30.18S WCI  11
HASTINGS       CLEAR     25  12  58 W8        30.19S WCI  16
HEBRON         CLEAR     27  13  56 W10       30.23R WCI  17
HOLDREGE       CLEAR     25  13  60 W9        30.21R WCI  16
KEARNEY *      CLEAR     27  12  54 SW7       30.20S WCI  19
YORK           CLEAR     21  14  73 W9        30.19S WCI  11
$$

NEZ011>018-030>034-042>045-061200-
NORTHEAST NEBRASKA

CITY           SKY/WX    TMP DP  RH WIND       PRES   REMARKS
NORFOLK        CLEAR     23  11  60 W6        30.13F WCI  16
ALBION         PTCLDY    17   8  66 CALM      30.15S
BLAIR          CLEAR     24  15  68 S9        30.16R WCI  14
COLUMBUS *     CLEAR     21   5  49 W8        30.18R WCI  12
FREMONT        CLEAR     24  15  68 SW3       30.17R
TEKAMAH        CLEAR     18  10  71 S9        30.17S WCI   7
WAYNE          CLEAR     25  11  55 W6        30.14R WCI  18
$$

NEZ050>053-065>068-078-088>093-061200-
SOUTHEAST NEBRASKA

CITY           SKY/WX    TMP DP  RH WIND       PRES   REMARKS
LINCOLN        CLEAR     26  14  60 SW6       30.20F WCI  19
OMAHA EPPLEY   CLEAR     20  13  74 SE9       30.20S WCI   9
BEATRICE       CLEAR     25  17  71 SW8       30.22S WCI  16
FALLS CITY     CLEAR     25  17  72 SW7       30.24S WCI  17
NEBRASKA CITY  CLEAR     26  15  62 SW14      30.19F WCI  14
PLATTSMOUTH    PTCLDY    21  12  68 S8        30.19S WCI  12
$$

NEZ044-045-051>053-067-061200-
OMAHA AREA

CITY           SKY/WX    TMP DP  RH WIND       PRES   REMARKS
OMAHA EPPLEY   CLEAR     20  13  74 SE9       30.20S WCI   9
BLAIR          CLEAR     24  15  68 S9        30.16R WCI  14
FREMONT        CLEAR     24  15  68 SW3       30.17R
MILLARD        CLEAR     21  14  73 CALM      30.18F
OFFUTT AFB     CLEAR     16  11  80 E3        30.18F
PLATTSMOUTH    PTCLDY    21  12  68 S8        30.19S WCI  12
WAHOO          FAIR      18  12  76 SW3       30.17S
$$



USA.gov is the U.S. government's official web portal to all federal, state and local government web resources and services.